EW1065 Weather Reports


Display with metric or nautical units.
time (UTC)temp
F
wind
direction
speed
MPH
gust
MPH
rain 1hr
in
rain 24hr
in
rain mn
in
humidity
%
barometer
mb
20260906103519 72 0.0 1.0 0.00 0.13 0.00 99 1014.0
20260906102519 72 0.0 0.0 0.00 0.13 0.00 99 1014.0
20260906101559 72 0.0 1.0 0.00 0.13 0.00 99 1013.9
20260906100519 72 0.0 2.0 0.00 0.13 0.00 99 1013.7
20260906095559 71 0.0 1.0 0.00 0.13 0.00 99 1013.6
20260906094519 71 0.0 1.0 0.00 0.13 0.00 99 1013.5
20260906093559 71 0.0 0.0 0.00 0.13 0.00 99 1013.4
20260906092519 70 0.0 0.0 0.00 0.20 0.00 98 1013.2
20260906091519 70 0.0 0.0 0.00 0.43 0.00 98 1013.3
20260906090519 71 0.0 0.0 0.00 0.54 0.00 98 1013.3
20260906085519 71 0.0 0.0 0.00 0.54 0.00 98 1013.3
20260906084519 71 0.0 0.0 0.00 0.54 0.00 98 1013.3
20260906083559 71 0.0 0.0 0.00 0.54 0.00 98 1013.3
20260906082519 71 0.0 0.0 0.00 0.54 0.00 98 1013.3
20260906081519 71 0.0 0.0 0.00 0.54 0.00 98 1013.2
20260906080519 72 0.0 0.0 0.00 0.54 0.00 98 1013.2
20260906075519 71 0.0 0.0 0.00 0.54 0.00 98 1013.3
20260906074519 71 0.0 0.0 0.00 0.54 0.00 98 1013.3
20260906073519 71 0.0 0.0 0.00 0.54 0.00 98 1013.2
20260906072519 72 0.0 0.0 0.00 0.54 0.00 98 1013.2
20260906071519 72 0.0 0.0 0.00 0.54 0.00 98 1013.2
20260906070559 72 0.0 0.0 0.00 0.54 0.00 98 1013.3
20260906065519 72 0.0 0.0 0.00 0.54 0.00 98 1013.3
20260906064519 72 0.0 0.0 0.00 0.54 0.00 98 1013.3
20260906063519 72 0.0 0.0 0.00 0.54 0.00 98 1013.3
20260906062559 73 0.0 0.0 0.00 0.54 0.00 98 1013.4
20260906061519 73 0.0 0.0 0.00 0.54 0.00 98 1013.7
20260906060519 73 0.0 0.0 0.00 0.54 0.00 97 1013.8
20260906055519 73 0.0 0.0 0.00 0.54 0.00 97 1013.6
20260906054519 73 0.0 0.0 0.00 0.54 0.00 97 1013.5
20260906053519 73 0.0 0.0 0.00 0.54 0.00 97 1013.4
20260906052519 73 0.0 0.0 0.00 0.54 0.00 97 1013.4
20260906051519 74 0.0 0.0 0.00 0.54 0.00 97 1013.5
20260906050519 74 0.0 0.0 0.00 0.54 0.00 96 1013.5
20260906045519 74 0.0 0.0 0.00 0.54 0.00 96 1013.5
20260906044519 74 0.0 0.0 0.00 0.54 0.00 96 1013.4
20260906043559 74 0.0 0.0 0.00 0.54 0.00 96 1013.3
20260906042519 74 0.0 0.0 0.00 0.54 0.00 96 1012.9
20260906041519 74 0.0 0.0 0.00 0.54 0.00 96 1012.9
20260906040519 75 0.0 0.0 0.00 0.54 0.00 95 1012.8
20260906035559 75 0.0 0.0 0.00 0.54 0.54 95 1012.9
20260906034519 75 0.0 0.0 0.00 0.54 0.54 95 1012.9
20260906033519 75 0.0 0.0 0.00 0.54 0.54 95 1012.7
20260906032559 76 0.0 0.0 0.00 0.54 0.54 95 1012.7
20260906031519 75 0.0 0.0 0.00 0.54 0.54 95 1012.6
20260906030559 75 0.0 0.0 0.00 0.54 0.54 96 1012.6
20260906025519 75 0.0 0.0 0.00 0.54 0.54 96 1012.7
20260906024519 76 0.0 0.0 0.00 0.54 0.54 96 1012.4
20260906023519 76 0.0 0.0 0.00 0.54 0.54 95 1012.4
20260906022559 76 0.0 0.0 0.00 0.54 0.54 95 1012.4
20260906021559 76 0.0 0.0 0.00 0.54 0.54 95 1012.2
20260906020519 76 0.0 0.0 0.00 0.54 0.54 94 1012.0
20260906015519 77 0.0 0.0 0.00 0.54 0.54 94 1012.1
20260906014519 77 0.0 0.0 0.00 0.54 0.54 94 1012.0
20260906013519 78 0.0 0.0 0.00 0.54 0.54 93 1011.8
20260906012559 78 0.0 0.0 0.00 0.54 0.54 93 1011.9
20260906011519 78 0.0 0.0 0.00 0.54 0.54 92 1011.6
20260906010559 79 0.0 0.0 0.00 0.54 0.54 92 1011.5
20260906005520 79 0.0 0.0 0.00 0.54 0.54 91 1011.4
20260906004519 80 0.0 0.0 0.00 0.54 0.54 90 1011.4
20260906003519 80 0.0 0.0 0.00 0.54 0.54 90 1011.5
20260906002519 81 0.0 0.0 0.00 0.54 0.54 89 1011.4
20260906001559 81 0.0 0.0 0.00 0.54 0.54 88 1011.5
20260906000519 82 0.0 3.0 0.00 0.54 0.54 87 1011.7
20260905235519 83 0.0 1.0 0.00 0.54 0.54 86 1011.8
20260905234519 83 0.0 0.0 0.00 0.54 0.54 85 1012.0
20260905233519 84 0.0 0.0 0.00 0.54 0.54 85 1012.2
20260905232519 85 0.0 0.0 0.00 0.54 0.54 82 1012.1
20260905231519 86 0.0 0.0 0.00 0.54 0.54 80 1012.2
20260905230559 87 0.0 0.0 0.00 0.54 0.54 79 1011.9
20260905225519 88 0.0 0.0 0.00 0.54 0.54 77 1011.8
20260905224519 89 0.0 0.0 0.00 0.54 0.54 76 1012.0
20260905223559 91 0.0 0.0 0.00 0.54 0.54 71 1011.7
20260905222519 94 0.0 0.0 0.00 0.54 0.54 63 1011.7
20260905221519 94 0.0 0.0 0.00 0.54 0.54 60 1012.0
20260905220519 95 0.0 0.0 0.00 0.54 0.54 60 1012.0
20260905215519 96 0.0 2.0 0.00 0.54 0.54 53 1011.9
20260905214519 97 0.0 0.0 0.00 0.54 0.54 54 1012.0
20260905213519 95 0.0 1.0 0.00 0.54 0.54 55 1012.1
20260905212519 95 0.0 3.0 0.00 0.54 0.54 52 1012.0
20260905211519 96 0.0 1.0 0.00 0.54 0.54 53 1012.0
20260905210559 96 225 1.0 3.0 0.00 0.54 0.54 52 1012.1
20260905205519 96 0.0 1.0 0.00 0.54 0.54 51 1012.2
20260905204519 95 0.0 1.0 0.00 0.54 0.54 53 1012.2
20260905203559 95 23 1.0 4.0 0.00 0.54 0.54 55 1012.4
20260905202519 95 0.0 1.0 0.00 0.54 0.54 55 1012.4
20260905201519 95 338 1.0 3.0 0.00 0.54 0.54 55 1012.6
20260905200559 95 0.0 3.0 0.00 0.54 0.54 52 1012.8
20260905195519 96 0.0 1.0 0.00 0.54 0.54 55 1012.9
20260905194519 96 225 1.0 2.0 0.00 0.54 0.54 55 1013.0
20260905193520 95 0.0 1.0 0.00 0.54 0.54 52 1013.1
20260905192519 95 0.0 1.0 0.00 0.54 0.54 52 1013.4
20260905191559 95 0.0 3.0 0.00 0.54 0.54 52 1013.5
20260905190519 94 0.0 2.0 0.00 0.54 0.54 51 1013.7
20260905185519 94 0.0 1.0 0.00 0.54 0.54 51 1013.7
20260905184559 94 248 1.0 3.0 0.00 0.54 0.54 54 1013.8
20260905183559 94 0.0 2.0 0.00 0.54 0.54 56 1013.8
20260905182519 93 0.0 1.0 0.00 0.54 0.54 58 1013.8
20260905181519 92 0.0 2.0 0.00 0.54 0.54 53 1014.1
20260905180519 92 0.0 2.0 0.00 0.54 0.54 54 1014.2
20260905175519 92 0.0 2.0 0.00 0.54 0.54 56 1014.3
20260905174519 91 0.0 3.0 0.00 0.54 0.54 54 1014.4
20260905173519 91 248 1.0 3.0 0.00 0.54 0.54 59 1014.5
20260905172519 91 0.0 2.0 0.00 0.54 0.54 57 1014.6
20260905171519 90 0.0 2.0 0.00 0.54 0.54 58 1014.6
20260905170519 89 0.0 1.0 0.00 0.54 0.54 60 1014.6
20260905165600 89 0.0 4.0 0.00 0.54 0.54 59 1014.8
20260905164519 89 0.0 2.0 0.00 0.54 0.54 61 1015.1
20260905163519 88 0.0 2.0 0.00 0.54 0.54 62 1015.2
20260905162519 87 0.0 1.0 0.00 0.54 0.54 63 1015.4
20260905161519 86 0.0 0.0 0.00 0.54 0.54 64 1015.0
20260905160519 85 0.0 3.0 0.00 0.54 0.54 70 1015.1
20260905155559 84 0.0 1.0 0.00 0.54 0.54 71 1015.0
20260905154559 84 270 1.0 4.0 0.00 0.54 0.54 71 1015.2
20260905153519 83 0.0 1.0 0.00 0.54 0.54 74 1015.1
20260905152519 82 225 1.0 4.0 0.00 0.54 0.54 75 1015.1
20260905151519 81 0.0 1.0 0.00 0.54 0.54 79 1015.1
20260905150519 80 0.0 1.0 0.00 0.54 0.54 81 1015.1
20260905145519 79 158 1.0 4.0 0.00 0.54 0.54 82 1015.1
20260905144559 77 0.0 1.0 0.00 0.54 0.54 86 1015.2
20260905143519 76 0.0 1.0 0.00 0.54 0.54 90 1015.4
20260905142519 75 0.0 1.0 0.00 0.54 0.54 94 1015.5
20260905141519 74 0.0 2.0 0.00 0.54 0.54 96 1015.8
20260905140519 73 0.0 2.0 0.00 0.54 0.54 97 1015.8
20260905135519 72 0.0 1.0 0.00 0.54 0.54 98 1015.7
20260905134559 72 0.0 1.0 0.00 0.54 0.54 98 1015.6
20260905133519 72 0.0 3.0 0.00 0.54 0.54 98 1015.8
20260905132519 72 0.0 2.0 0.00 0.54 0.54 99 1016.2
20260905131559 72 0.0 2.0 0.00 0.54 0.54 99 1016.2
20260905130519 72 0.0 1.0 0.00 0.54 0.54 99 1016.5
20260905125519 71 0.0 1.0 0.00 0.54 0.54 99 1016.1
20260905124559 71 0.0 1.0 0.03 0.54 0.54 99 1016.1
20260905123519 72 0.0 1.0 0.13 0.54 0.54 99 1016.1
20260905122519 72 0.0 4.0 0.13 0.54 0.54 99 1016.0
20260905121519 72 293 1.0 5.0 0.13 0.54 0.54 99 1015.9
20260905120519 72 0.0 0.0 0.13 0.54 0.54 99 1014.7
20260905115519 72 0.0 1.0 0.13 0.54 0.54 99 1014.4
20260905114519 72 0.0 2.0 0.10 0.51 0.51 99 1015.2
20260905113519 72 0.0 0.0 0.00 0.41 0.41 99 1015.1
20260905112519 72 0.0 1.0 0.00 0.41 0.41 99 1014.8
20260905111519 72 0.0 2.0 0.00 0.41 0.41 99 1014.8
20260905110559 72 0.0 1.0 0.00 0.41 0.41 99 1015.1
20260905105519 73 0.0 0.0 0.00 0.41 0.41 99 1014.9
20260905104520 73 0.0 0.0 0.00 0.41 0.41 99 1014.8